CAPE
269 369 279 328 328 342 239 192 183 424 799 714 851 1283 331 401 980 261 344 1087 267 869 473 1099 1504 1757 1577 1672 1624 1661 1479 1627 1797
59 13 14 398 438 323 456 375 270 483 824 1012 1153 846 1231 216 823 825 316 648 669 577 566 935 1720 1625 2193 1764 1934 1696 1587 1357 1356
2 1 2 42 588 442 526 482 547 443 935 1221 1437 1311 1415 1051 118 843 497 161 626 538 828 272 1939 2085 1844 1851 2006 1940 1879 1659 1438
0 0 3 128 200 605 485 598 692 628 636 1479 1691 1686 1413 1316 1042 531 324 634 79 1111 643 1729 798 1707 1814 1854 1647 2076 1967 1388 1690
128 240 290 16 0 1 592 576 688 936 795 991 1638 1785 1589 1470 1402 918 719 135 1006 977 1255 1053 1984 1244 1900 1387 1853 1868 1821 2008 1432
196 124 85 5 62 192 691 589 693 870 947 922 1446 1755 1622 1637 1575 1490 1049 723 356 1326 1443 1954 1545 2094 1590 1986 1688 1646 1696 2159 2063
0 193 231 256 329 409 909 825 817 885 876 963 1064 1527 1585 1565 1598 1510 1370 1439 658 1578 1706 1501 1805 1831 2285 2139 1961 1625 1600 2377 2383
0 0 15 12 89 527 1071 1150 1170 1129 1130 983 1034 1100 1380 1627 1734 1598 1592 1350 1421 741 1462 1911 2022 2074 2294 2451 2393 1965 1562 1816 2350
243 56 47 19 24 130 541 1240 1460 1427 1286 1284 1168 1124 1314 1415 1690 1699 1673 1438 1522 1646 1476 1716 2118 2303 2335 2550 2535 2031 1463 1600 1725
282 513 262 308 241 265 270 274 545 1782 1727 1460 1417 1362 1340 1400 1659 1796 1700 1846 1506 2003 1837 2052 2172 2317 2455 2558 2660 1971 1306 1298 1632
39 354 431 285 240 204 195 1 39 2071 2061 1839 1846 1530 1673 1532 1514 1712 1905 1890 2046 1831 2214 2114 2304 2402 2466 2567 2663 2436 1483 1022 1307
54 18 3 324 384 412 554 645 741 1020 2073 2081 1765 2102 1699 1965 1578 1827 1912 2039 1993 2130 2126 2353 2362 2548 2596 2523 2649 2470 2043 1180 1000
0 0 0 128 430 626 914 849 863 858 981 2536 2089 1783 2250 1950 2050 1870 2112 2134 2162 2236 2286 2362 2538 2498 2654 2814 2792 2579 2174 1689 1578
0 0 1 2 37 332 869 1781 1383 1068 937 1121 2631 2265 1926 2467 2470 2092 2397 2421 2427 2500 2559 2646 2710 2718 2775 2996 3008 3078 2348 1603 2019
0 0 0 1 3 339 1996 2524 2401 1588 1508 1183 1588 2660 2406 2421 2517 2724 2499 2855 2914 2822 2843 2897 2904 2946 3011 3030 3344 3107 2633 2169 1633
1 2 0 1 3 122 159 408 1512 2824 2361 2111 1560 2045 2669 2654 2923 2903 2739 3005 3119 3231 3178 3164 3090 3074 3194 3204 3218 3465 2834 2204 2048
0 3 2 0 4 2 3 2 3 602 1322 2640 2463 1543 3010 2858 3156 3139 2970 3074 3240 3347 3327 3318 3265 2998 3301 3196 3144 3204 3529 2519 1806
0 1 0 1 1 1 1 2 4 5 155 1156 2446 2379 3082 3170 3244 3099 3171 2834 3311 3321 3233 3228 3197 3169 2868 3169 2981 2672 2610 2792 2269
7 0 0 2 0 0 0 2 3 7 1 119 1733 3296 3301 3188 3176 3163 3204 2889 2520 1554 2667 2348 2777 2534 2897 2029 1760 1395 1461 1090 2073
0 0 0 2 1 0 0 0 2 4 0 0 411 1752 2889 2918 2772 2915 2991 2956 2724 2338 1053 521 896 1660 1735 2316 1977 1890 1772 1703 1533
CIN
-30 -21 -29 -47 -93 -122 -180 -174 -168 -132 -122 -120 -85 -10 -120 -101 -43 -69 -45 -11 -10 -2 -6 -7 -21 -15 -29 -25 -13 -8 -9 -8 -14
-118 -138 -26 -21 -77 -105 -135 -149 -186 -153 -150 -130 -93 -117 -63 -172 -80 -54 -79 -26 -7 -13 -10 -10 -32 -25 -12 -15 -3 -5 -10 -12 -13
-39 -6 -12 -143 -29 -93 -127 -157 -138 -135 -93 -126 -89 -78 -52 -99 -248 -95 -78 -137 -45 -44 -12 -37 -11 -28 -23 -17 -2 -1 -3 -3 -7
-0 -0 -110 -94 -126 -39 -124 -121 -131 -154 -137 -65 -57 -46 -70 -67 -100 -144 -153 -80 -251 -29 -54 -7 -11 -4 -5 -9 -10 -1 -1 -9 -3
-113 -137 -211 -174 -0 -11 -68 -120 -129 -145 -157 -135 -105 -69 -55 -66 -71 -117 -115 -291 -58 -54 -27 -25 -9 -15 -5 -23 -4 -8 -4 -3 -12
-79 -250 -256 -244 -216 -224 -33 -105 -127 -150 -156 -179 -97 -62 -62 -44 -52 -68 -117 -160 -209 -39 -32 -14 -16 -17 -23 -8 -24 -26 -31 -6 -8
-0 -99 -213 -145 -117 -36 -17 -90 -118 -147 -159 -150 -142 -106 -92 -86 -90 -110 -118 -97 -186 -24 -31 -49 -25 -26 -14 -25 -28 -41 -44 -8 -2
-0 -0 -4 -8 -11 -18 -14 -49 -116 -125 -111 -153 -156 -156 -149 -140 -99 -82 -74 -97 -104 -175 -56 -35 -42 -35 -19 -12 -14 -33 -51 -46 -13
-134 -15 -6 -22 -32 -20 -66 -4 -54 -88 -95 -120 -140 -161 -174 -133 -88 -79 -69 -90 -70 -60 -61 -50 -39 -32 -27 -11 -10 -32 -64 -64 -50
-126 -65 -23 -49 -72 -56 -99 -86 -107 -57 -71 -69 -102 -138 -144 -153 -121 -104 -109 -63 -76 -22 -40 -14 -34 -44 -34 -21 -17 -37 -81 -84 -59
-168 -74 -44 -83 -121 -120 -49 -44 -64 -21 -26 -42 -66 -122 -115 -147 -163 -148 -99 -76 -44 -49 -11 -18 -12 -31 -48 -35 -36 -41 -76 -121 -73
-103 -214 -22 -36 -109 -141 -144 -145 -122 -64 -10 -60 -84 -71 -152 -138 -182 -148 -133 -108 -91 -52 -27 -16 -22 -22 -37 -49 -44 -58 -81 -112 -124
-0 -0 -0 -115 -132 -159 -152 -163 -170 -134 -111 -11 -89 -131 -136 -141 -137 -153 -153 -144 -109 -77 -49 -48 -32 -40 -41 -39 -50 -68 -93 -117 -75
-0 -0 -55 -72 -330 -195 -150 -64 -96 -120 -118 -131 -62 -128 -112 -75 -94 -150 -116 -113 -97 -75 -51 -31 -24 -21 -20 -15 -39 -50 -100 -152 -81
-0 -0 -0 -0 -0 -180 -23 -9 -7 -72 -115 -140 -136 -41 -106 -76 -99 -74 -85 -68 -60 -61 -39 -20 -13 -21 -12 -10 -12 -42 -84 -132 -150
-0 -0 -0 -0 -0 -312 -319 -294 -127 -30 -65 -108 -127 -67 -76 -99 -63 -62 -66 -61 -49 -35 -28 -20 -18 -10 -18 -11 -15 -16 -72 -136 -152
-0 -0 -0 -0 -0 -0 -0 -0 -0 -293 -277 -106 -84 -99 -46 -76 -69 -68 -62 -39 -38 -25 -30 -26 -19 -25 -8 -31 -16 -8 -16 -111 -203
-0 -0 -1 -0 -0 -0 -0 -0 -0 -0 -519 -330 -98 -91 -33 -38 -45 -65 -40 -51 -46 -39 -41 -47 -58 -41 -57 -10 -37 -56 -31 -43 -142
-0 -0 -0 -0 -0 -0 -0 -0 -0 -0 -0 -339 -181 -7 -11 -17 -24 -35 -37 -45 -94 -272 -73 -111 -66 -82 -22 -106 -150 -216 -149 -183 -129
-0 -0 -0 -0 -0 -0 -0 -0 -0 -0 -0 -0 -339 -75 -4 -6 -13 -6 -25 -32 -47 -96 -387 -535 -346 -150 -102 -92 -184 -202 -245 -239 -246
Wind_Speed
19 22 18 19 25 24 24 27 29 24 20 19 21 20 27 20 21 40 37 32 33 27 27 20 16 14 14 15 17 17 18 17 18
25 29 26 19 23 24 23 22 24 27 23 19 19 22 18 22 16 19 35 35 32 30 31 21 8 11 10 13 16 18 18 19 19
20 30 46 46 20 22 21 24 20 21 21 21 18 18 17 17 21 18 15 29 32 33 31 32 3 8 10 12 20 20 17 20 17
20 14 32 48 35 23 20 19 22 22 23 19 20 18 18 18 17 19 18 16 21 14 37 28 13 7 1 8 17 22 17 19 20
20 14 15 15 46 47 21 22 23 23 22 24 21 17 18 19 19 18 19 20 14 13 12 32 19 11 10 1 5 16 18 15 18
16 15 14 11 20 36 28 22 22 22 23 24 19 18 16 20 20 19 20 20 20 17 15 15 17 14 10 9 4 9 13 13 14
30 14 16 15 16 35 23 22 21 21 21 21 21 21 19 18 20 20 19 18 20 17 17 17 13 14 14 10 7 7 11 10 10
27 25 27 32 29 17 18 18 20 19 18 19 20 20 23 22 17 20 19 18 18 20 19 16 15 14 13 12 9 9 10 10 10
28 24 19 22 22 33 21 30 19 19 18 18 20 21 21 19 16 17 18 18 18 19 19 19 17 16 14 13 12 12 14 11 11
24 24 19 20 22 15 20 25 36 18 17 17 19 21 19 18 17 18 19 17 18 18 19 19 19 18 16 16 15 15 17 16 13
29 28 25 24 25 25 17 11 46 36 16 18 17 20 18 19 20 19 18 19 19 19 18 19 19 18 18 17 16 16 18 17 17
29 28 32 30 30 31 31 30 27 23 19 19 18 17 21 20 21 18 18 20 21 18 18 18 19 18 18 18 17 17 19 16 14
30 31 33 36 36 36 35 36 38 35 33 22 20 20 19 20 18 20 19 18 17 17 18 18 18 19 19 19 18 17 18 18 15
30 30 35 37 37 37 39 39 38 41 41 42 24 19 19 17 19 22 19 16 15 15 16 17 18 18 20 20 19 19 18 18 16
32 32 32 34 36 34 35 32 36 39 42 45 40 23 22 20 20 18 19 18 16 16 16 16 17 18 20 19 18 18 18 17 20
34 30 31 32 31 29 30 32 32 36 39 38 41 36 24 22 20 20 19 20 19 17 17 18 17 19 19 20 20 21 17 16 18
38 35 33 32 31 30 32 33 32 32 33 37 33 38 27 25 22 19 20 19 20 19 17 19 20 20 21 20 26 26 20 16 15
37 35 34 32 31 30 31 32 31 31 32 33 36 32 28 26 24 22 20 21 21 20 19 17 19 21 22 23 23 26 27 17 15
32 33 34 34 31 30 30 30 30 29 29 29 30 29 30 29 26 24 22 22 25 25 18 16 17 20 19 20 18 20 22 20 13
27 28 30 31 29 29 28 28 28 28 28 28 30 33 34 34 32 28 26 24 25 23 20 18 16 17 17 15 14 15 16 15 17
Wind_Direction
216 180 190 184 174 172 171 171 172 174 180 184 181 179 178 177 172 206 217 222 214 225 188 160 146 133 127 129 143 145 146 140 155
234 240 250 202 183 178 175 174 173 175 181 189 189 187 190 185 190 179 232 228 231 235 221 258 128 132 122 133 143 153 143 167 163
260 260 254 240 202 186 183 178 177 175 177 188 199 204 213 206 192 194 239 193 240 234 235 224 117 134 133 136 166 164 150 171 153
258 279 236 234 244 223 189 183 179 179 177 181 193 204 206 215 209 201 201 245 187 248 207 250 267 287 92 130 160 176 161 172 181
241 240 213 235 233 218 188 182 180 180 181 180 185 202 223 222 226 213 208 205 225 219 224 248 264 264 284 231 143 166 171 166 176
251 222 196 213 202 202 181 185 183 183 184 183 185 189 216 230 230 224 208 206 204 204 212 250 257 264 260 272 251 169 171 169 170
257 234 221 224 226 214 191 187 189 186 187 185 183 183 189 215 219 216 214 216 207 216 206 208 229 252 263 258 245 197 179 176 175
275 263 267 260 260 248 202 199 194 195 198 192 187 185 185 190 216 228 232 225 226 213 210 213 216 230 242 247 232 212 196 191 187
296 267 269 271 272 253 233 246 213 213 204 202 192 188 188 188 201 220 224 223 229 230 222 212 216 215 222 225 218 208 198 198 196
292 297 277 271 273 286 260 250 236 215 220 215 202 192 191 191 192 204 207 221 219 228 221 231 218 217 220 219 218 209 202 201 202
276 293 286 273 272 272 291 281 221 214 224 229 224 199 201 195 193 197 207 208 211 217 232 227 233 229 223 226 227 218 209 208 206
271 280 285 276 273 275 276 274 270 277 240 223 223 218 202 200 196 198 201 203 206 216 225 231 230 235 231 224 232 224 214 219 218
274 281 275 277 274 271 271 268 263 264 261 243 216 206 208 206 202 198 200 205 208 222 225 224 238 238 241 243 246 240 223 219 225
273 282 278 275 273 269 268 267 264 258 255 250 246 234 238 230 214 201 203 216 220 223 226 237 237 242 252 252 247 253 233 225 234
265 276 277 273 270 272 275 277 265 257 255 250 253 249 241 236 219 224 212 209 216 228 234 233 241 241 255 254 254 245 253 230 219
269 280 283 283 282 281 283 282 279 267 257 256 252 255 240 238 238 225 222 216 215 221 235 244 244 253 252 259 260 261 237 238 226
268 275 280 284 283 283 283 283 279 274 269 259 252 249 245 238 236 228 230 231 228 219 226 241 251 250 257 259 264 266 263 249 247
266 269 272 276 281 283 284 282 280 278 274 268 253 246 241 238 240 237 237 234 226 219 217 226 245 256 256 262 263 263 264 255 255
271 266 271 275 280 284 283 284 282 280 278 271 262 248 242 241 242 241 241 236 248 256 240 243 245 255 255 264 267 269 269 265 226
271 270 271 272 275 277 279 282 281 282 280 276 267 258 251 248 246 247 241 240 242 240 252 258 256 249 251 258 264 270 273 276 269